CW9414 Weather Reports


time (UTC)temp
C
wind
direction
speed
KPH
gust
KPH
rain 1hr
cm
rain 24hr
cm
rain mn
cm
humidity
%
barometer
mb
20260505220411 28 173 3.2 12.9 0.00 0.00 0.00 67 1002.9
20260505215408 28 145 1.6 12.9 0.00 0.00 0.00 67 1003.1
20260505214409 29 167 3.2 8.0 0.00 0.00 0.00 67 1003.3
20260505213411 29 203 4.8 16.1 0.00 0.00 0.00 67 1003.3
20260505212408 28 185 4.8 14.5 0.00 0.00 0.00 67 1003.5
20260505211407 28 209 4.8 12.9 0.00 0.00 0.00 68 1003.6
20260505210408 28 141 6.4 17.7 0.00 0.00 0.00 68 1003.6
20260505205407 28 153 4.8 16.1 0.00 0.00 0.00 68 1004.0
20260505204407 28 205 3.2 14.5 0.00 0.00 0.00 68 1004.1
20260505203408 28 185 8.0 19.3 0.00 0.00 0.00 68 1004.1
20260505202407 28 174 3.2 16.1 0.00 0.00 0.00 68 1004.3
20260505201408 28 170 6.4 17.7 0.00 0.00 0.00 68 1004.5
20260505200407 28 182 3.2 11.3 0.00 0.00 0.00 69 1004.5
20260505195407 28 127 1.6 11.3 0.00 0.00 0.00 69 1004.6
20260505194407 28 170 1.6 8.0 0.00 0.00 0.00 71 1004.7
20260505193411 28 169 0.0 8.0 0.00 0.00 0.00 72 1004.7
20260505192407 27 144 3.2 9.7 0.00 0.00 0.00 72 1005.0
20260505191407 27 157 3.2 16.1 0.00 0.00 0.00 72 1004.9
20260505190407 27 138 1.6 12.9 0.00 0.00 0.00 72 1004.9
20260505185407 28 169 3.2 14.5 0.00 0.00 0.00 72 1005.1
20260505184408 27 159 9.7 19.3 0.00 0.00 0.00 73 1005.1
20260505183408 27 139 6.4 14.5 0.00 0.00 0.00 73 1005.1
20260505182407 27 186 6.4 9.7 0.00 0.00 0.00 74 1005.2
20260505181410 27 229 8.0 9.7 0.00 0.00 0.00 75 1005.4
20260505180408 27 155 0.0 17.7 0.00 0.00 0.00 75 1005.4
20260505175408 27 126 3.2 8.0 0.00 0.00 0.00 76 1005.6
20260505174407 27 139 11.3 11.3 0.00 0.00 0.00 76 1005.6
20260505173407 26 196 3.2 12.9 0.00 0.00 0.00 76 1005.6
20260505172408 26 184 6.4 14.5 0.00 0.00 0.00 76 1005.5
20260505171407 26 136 3.2 14.5 0.00 0.00 0.00 77 1005.6
20260505170408 26 142 6.4 14.5 0.00 0.00 0.00 77 1005.6
20260505165407 26 184 4.8 16.1 0.00 0.00 0.00 79 1005.6
20260505164407 26 142 4.8 12.9 0.00 0.00 0.00 81 1005.6
20260505163407 26 126 0.0 9.7 0.00 0.00 0.00 82 1005.6
20260505162407 25 178 1.6 9.7 0.00 0.00 0.00 82 1005.6
20260505161407 25 148 1.6 12.9 0.00 0.00 0.00 82 1005.6
20260505160407 25 136 1.6 8.0 0.00 0.00 0.00 82 1005.6
20260505152407 25 161 4.8 11.3 0.00 0.00 0.00 84 1005.3
20260505151411 24 195 1.6 8.0 0.00 0.00 0.00 85 1005.3
20260505150407 24 195 6.4 8.0 0.00 0.00 0.00 86 1005.3
20260505140407 23 157 8.0 12.9 0.00 0.00 0.00 91 1005.0
20260505124407 22 157 0.0 1.6 0.00 0.00 0.00 90 1004.9
20260505123407 22 157 0.0 4.8 0.00 0.00 0.00 90 1004.9
20260505122407 21 157 0.0 3.2 0.00 0.00 0.00 89 1004.8
20260505121411 21 157 0.0 3.2 0.00 0.00 0.00 89 1004.5
20260505120407 21 157 0.0 4.8 0.00 0.00 0.00 89 1004.5
20260505115407 21 157 1.6 8.0 0.00 0.00 0.00 89 1004.5
20260505114407 21 157 0.0 1.6 0.00 0.00 0.00 89 1004.6
20260505113407 21 157 0.0 3.2 0.00 0.00 0.00 89 1004.6
20260505112407 21 157 0.0 4.8 0.00 0.00 0.00 88 1004.5
20260505111407 21 157 0.0 8.0 0.00 0.00 0.00 88 1004.3
20260505110407 21 159 0.0 6.4 0.00 0.00 0.00 88 1004.3
20260505101407 21 171 0.0 8.0 0.00 0.00 0.00 87 1004.7
20260505100408 21 171 1.6 4.8 0.00 0.00 0.00 87 1004.7
20260505095407 21 171 0.0 4.8 0.00 0.00 0.00 87 1004.6
20260505094407 21 171 0.0 3.2 0.00 0.00 0.00 86 1004.6
20260505093410 21 171 1.6 8.0 0.00 0.00 0.00 86 1004.6
20260505092407 21 171 0.0 3.2 0.00 0.00 0.00 86 1004.8
20260505091407 21 171 0.0 4.8 0.00 0.00 0.00 86 1005.0
20260505090407 21 171 3.2 4.8 0.00 0.00 0.00 86 1005.0
20260505085407 21 171 0.0 3.2 0.00 0.00 0.00 85 1005.0
20260505084407 21 171 0.0 4.8 0.00 0.00 0.00 85 1005.1
20260505083407 21 171 0.0 4.8 0.00 0.00 0.00 85 1005.1
20260505082410 21 171 0.0 3.2 0.00 0.00 0.00 85 1005.2
20260505081410 21 171 0.0 8.0 0.00 0.00 0.00 84 1005.3
20260505080410 21 172 0.0 4.8 0.00 0.00 0.00 84 1005.3
20260505075407 21 172 0.0 4.8 0.00 0.00 0.00 84 1005.4
20260505074410 21 172 0.0 4.8 0.00 0.00 0.00 84 1005.4
20260505073407 21 171 0.0 6.4 0.00 0.00 0.00 83 1005.4
20260505072407 21 150 0.0 14.5 0.00 0.00 0.00 83 1005.5
20260505071407 21 150 0.0 6.4 0.00 0.00 0.00 82 1005.6
20260505070407 21 151 3.2 4.8 0.00 0.00 0.00 82 1005.6
20260505065407 21 151 3.2 8.0 0.00 0.00 0.00 82 1006.0
20260505064407 21 151 1.6 9.7 0.00 0.00 0.00 82 1006.1
20260505063407 21 151 3.2 6.4 0.00 0.00 0.00 82 1006.1
20260505062407 21 151 1.6 4.8 0.00 0.00 0.00 81 1006.2
20260505061407 21 151 0.0 6.4 0.00 0.00 0.00 81 1006.4
20260505060407 21 151 1.6 9.7 0.00 0.00 0.00 80 1006.4
20260505055406 21 152 1.6 8.0 0.00 0.00 0.00 80 1006.2
20260505054406 21 151 1.6 9.7 0.00 0.00 0.00 79 1006.6
20260505053407 21 151 1.6 6.4 0.00 0.00 0.00 79 1006.6
20260505052406 21 151 0.0 4.8 0.00 0.00 0.00 79 1006.9
20260505051407 21 151 0.0 6.4 0.00 0.00 0.00 79 1006.9
20260505050406 21 151 3.2 8.0 0.00 0.00 0.00 78 1006.9
20260505041410 22 154 3.2 4.8 0.00 0.00 0.00 76 1007.1
20260505040406 22 154 0.0 9.7 0.00 0.00 0.00 75 1007.1
20260505035407 22 154 1.6 8.0 0.00 0.00 0.00 75 1007.1
20260505034406 22 150 1.6 9.7 0.00 0.00 0.00 75 1007.1
20260505033406 22 153 0.0 6.4 0.00 0.00 0.00 74 1007.1
20260505032409 22 153 1.6 8.0 0.00 0.00 0.00 74 1007.2
20260505031407 22 149 1.6 9.7 0.00 0.00 0.00 73 1007.1
20260505030406 22 161 3.2 14.5 0.00 0.00 0.00 72 1007.1
20260505025407 23 138 0.0 11.3 0.00 0.00 0.00 72 1007.2
20260505024407 23 136 4.8 14.5 0.00 0.00 0.00 72 1007.2
20260505023406 23 136 6.4 6.4 0.00 0.00 0.00 71 1007.2
20260505022406 23 134 0.0 11.3 0.00 0.00 0.00 71 1006.9
20260505021406 23 188 1.6 6.4 0.00 0.00 0.00 70 1006.7
20260505020406 23 150 0.0 11.3 0.00 0.00 0.00 69 1006.7
20260505015407 23 148 3.2 11.3 0.00 0.00 0.00 69 1006.8
20260505014409 23 148 4.8 6.4 0.00 0.00 0.00 69 1006.6
20260505013406 23 153 1.6 8.0 0.00 0.00 0.00 68 1006.6
20260505012406 24 148 1.6 14.5 0.00 0.00 0.00 67 1006.6
20260505011406 24 144 3.2 16.1 0.00 0.00 0.00 66 1006.6
20260505010409 25 142 4.8 8.0 0.00 0.00 0.00 65 1006.6
20260505005406 25 143 17.7 17.7 0.00 0.00 0.00 65 1006.6
20260505004406 25 157 3.2 9.7 0.00 0.00 0.00 64 1006.5
20260505003406 25 163 3.2 9.7 0.00 0.00 0.00 64 1006.5
20260505002406 25 148 1.6 11.3 0.00 0.00 0.00 64 1006.3
20260505001407 25 143 6.4 12.9 0.00 0.00 0.00 63 1006.5
20260505000407 26 144 4.8 8.0 0.00 0.00 0.00 62 1006.5
20260504235407 26 149 1.6 11.3 0.00 0.00 0.00 62 1006.6
20260504234406 26 157 4.8 14.5 0.00 0.00 0.00 62 1006.7
20260504233409 26 173 3.2 11.3 0.00 0.00 0.00 61 1006.7
20260504232407 26 155 6.4 14.5 0.00 0.00 0.00 60 1007.0
20260504231406 26 152 6.4 9.7 0.00 0.00 0.00 59 1007.2
20260504230406 26 138 4.8 11.3 0.00 0.00 0.00 58 1007.2
20260504225406 26 143 8.0 14.5 0.00 0.00 0.00 57 1007.2
20260504224407 26 207 4.8 12.9 0.00 0.00 0.00 57 1007.2
20260504223406 26 149 1.6 9.7 0.00 0.00 0.00 57 1007.2
20260504222406 26 148 1.6 11.3 0.00 0.00 0.00 56 1007.3
20260504221406 26 152 6.4 16.1 0.00 0.00 0.00 56 1007.7